Погода в Клаипеде

Погода в Клаипеде : погода сейчас, прогноз погоды и архив. Всё, что Вы хотите узнать о погоде в Клаипеде!

Поиск расширенной информации на нашем сайте:

Другие новости

Новости СМИ2

Главная страница сайта

Новости сайта

03.07.2017

Напоминаем, что на нашем специализированном сайте Метеоцентр.Азия вы можете получить высокодетализированные автоматические прогнозы погоды по пунктам России, СНГ и мира в авиационном формате (включающие направление и скорость ветра, видимость, явления погоды, количество и форму облачности, нижнюю и верхнюю границу облачности).

Рекомендуем: Удобная и быстрая видео афиша для быстрого просмотра новостей

Погода в Клаипеде - сегодня

Время (UTC), дата Ветер
(°,м/с) 
Видим.   Явления Облачность Т
(°С)
Тd
(°С)
f(%) Тe
(°С)
Pmin
(гПа)
dP
(гПа)
Po
(мм)
O2
(г/м3)
Тmin Tmax R s Состояние
почвы
18 20.02.18 010 (С) 1-2{05}  15000 м    10/10 700 м 
[Sc]
-4.2 -7.2 80 -4  1026.2  0.4  769  315    -1.1    10   
21 20.02.18 010 (С) 1-2{04}  11000 м    10/10 750 м 
[Sc]
-4.3 -7.7 77 -4  1026.6  0.4  769  316           
00 21.02.18 040 (СВ) 18000 м    3/0 верхняя 
[Ci sp]
-5.8 -7.6 87 -5  1026.5  -0.1             
03 21.02.18 040 (СВ) 2-2{02}  13000 м    ясно 
-8.4 -9.4 92 -10  1026.1  -0.4  769  321           
06 21.02.18 050 (СВ) 2-3{03}  14000 м    8/0 средняя 
[Ac trans]
-8.3 -9.3 92 -10  1026  -0.1  769  320  -9.5      10  равномерный
сухой снег
100% 
12 21.02.18 020 (С) 2-3{05}  14000 м  слаб. ливневой снег  10/4 300 м кучево-дожд., средняя 
[Cb cap|Ac trans]
-4.5 -11.1 60 -6  1026.4  0.1  769  316      0.0  10   
15 21.02.18 060 (СВ) 3-5{05}  19000 м  {ливн. осадки}  3/0 верхняя 
[Ci sp]
-5.1 -11 63 -7  1026.2  -0.2  769  317           
18 21.02.18 070 (В) 2-4{05}  15000 м  {ливн. осадки}  ясно 
-8.7 -12.5 74 -10  1027.5  1.3  770  322    -3.2  0.0  10   
21 21.02.18 050 (СВ) 2-3{04}  9000 м  дымка  ясно 
-10.9 -12.9 85 -13  1029.1  1.6  771  325           
00 22.02.18 060 (СВ) 9000 м  дымка  ясно 
-12.1 -14.1 85 -14  1029.7  0.6             
03 22.02.18 080 (В) 2-3{05}  10 км    ясно 
-13.8 -15.8 85 -16  1030  0.3  772  329           
06 22.02.18 070 (В) 2-3{04}  10 км    ясно 
-14.3 -16.3 85 -16  1030.8  0.8  772  330  -14.4      10  равномерный
сухой снег
100% 
09 22.02.18 090 (В) 3-6{06}  15000 м    3/0 верхняя 
[Ci sp]
-8.9 -12.8 73 -12  1021.4  0.6  773  323           
12 22.02.18 070 (В) 2-4{06}  20000 м    ясно 
-5.8 -12.5 59 -7  1031.1  -0.3  773  319        10   
15 22.02.18 010 (С) 2-4{05}  18000 м    ясно 
-6.6 -12.7 62 -8  1030.2  -0.9  772  320           
18 22.02.18 050 (СВ) 2-3{03}  13000 м    ясно 
-11.2 -14 80 -13  1030.4  0.2  772  326    -5.1    10   
00 23.02.18 100 (В) 1-3{03}  7000 м  дымка  ясно 
-14.7 -16.7 85 -15  1030.1  -0.5  772  330        10   
03 23.02.18 100 (В) 2-3{04}  9000 м  дымка  ясно 
-15.5 -17.4 85 -18  1029  -1.1  771  331           
06 23.02.18 100 (В) 2-3{04}  9000 м  дымка  3/0 верхняя 
[Ci sp]
-15.6 -17.5 85 -18  1028.7  -0.3  771  331  -16      10  равномерный
сухой снег
100% 
12 23.02.18 140 (ЮВ) 3-6{06}  19000 м    10/10 360 м 
[Sc]
-6.7 -10 77 -9  1026.6  -1.6  769  319        10   
15 23.02.18 190 (Ю) 7-10{12}  0700 м  снег  10/10 200 м 
[Frnb|Ns]
-3.3 -4.7 90 -8  1022.6  -3.9  766  313           
18 23.02.18 070 (В) 2-4{13}  16000 м  в посл. час снег  10/10 600 м 
[Sc]
-6.6 -7.8 91 -8  1021.7  -1  766  317    -1.5  13   
00 24.02.18 050 (СВ) 4-10{11}  2700 м  слаб. снег  10/10 600 м 
[Frnb|Ns]
-8.3 -10.5 84 -12  1025  3.1  768  320      0.0  13   
03 24.02.18 030 (СВ) 3-5{10}  20000 м  {снег}  3/3 600 м 
[Sc]
-9.9 -12.8 79 -13  1028.8  3.8  771  324           
06 24.02.18 030 (СВ) 3-5{07}  17000 м  {снег}  ясно 
-12.1 -14.1 85 -15  1032.1  3.3  773  327  -12.2    0.0  12  равномерный
сухой снег
100% 
Время (UTC), дата Ветер
(°,м/с) 
Видим.   Явления Облачность Т
(°С)
Тd
(°С)
f(%) Тe
(°С)
Pmin
(гПа)
dP
(гПа)
Po
(мм)
O2
(г/м3)
Тmin Tmax R s Состояние
почвы

Для получения пояснительной информации подведите курсор к названию столбца.

ПОГОДА в Клаипеде - архив

Всё, что Вы хотите узнать о погоде в Клаипеде - удобно и подробно!

Выберите нужную дату (начиная с 1 января 2015* года) и нажмите кнопку "Найти".
Будут отображены архивные сводки погоды по пункту Клаипеда, начиная с указанной даты.


Отображать данные в формате CSV (для использования в таблицах Excel)


Внимание! Наш архив погоды предназначен исключительно для личного некоммерческого использования в познавательных целях. Если Вам необходимы официальные справки о состоянии погоды (для производственных, юридических, коммерческих и т.п. целей), обращайтесь в органы Росгидромета.

*Примечание: данная дата относится к архиву по метеостанциям СССР (Россия, СНГ, Балтия).
Архив по метеостанциям Зарубежной Европы и Азии (кроме Китая) хранится 10 дней, по другим регионам земного шара (Китай, Африка, Америка, Австралия, Океания) - 1 день.

Клаипеда - район местоположения метеостанции


Название, широта, долгота, высота метеостанции:
Клаипеда 55.7°ш. 21.1°д. 7 м над ур. моря [Литва]

Дополнительная информация

В oтличие oт бoльшинства пoгoдных сайтoв мы публикуем пoдрoбную метеoинфoрмацию в детальнoм прoфессиoнальнoм фoрмате.

Характеристики температуры и влажнoсти вoздуха измеряются на высoте 2 м в тени вдали oт зданий и деревьев.
Скoрoсть ветра измеряется на высoте 10 м (на урoвне рoста челoвека скoрoсть ветра ниже в 1.5-2 раза). Если метеoстанция нахoдится в гoрoде или в лесу, тo скoрoсть ветра занижена на 2-4 м/с пo сравнению с oткрытым местoм. Скoрoсть ветра над акватoриями крупных рек и oзёр, а также на вершинах хoлмoв на 2-5 м/с выше, чем в oбычных услoвиях.
Атмoсфернoе давление в разных тoчках местнoсти мoжет значительнo oтличаться oт давления на метеoстанции, в зависимoсти oт услoвий рельефа (при пoдъёме на 10 м давление пoнижается примернo на 1 мм рт.ст.).